CZ-6A DEB, 54389

Orbit data source: Space-Track

CZ-6A DEB, 54389 is space debris in SSO originally from a launch on Fri, 11 Nov 2022 UTC launched from the Taiyaun Space Center, China (TSC). Debris objects in space refer to the collection of defunct objects orbiting the Earth. Examples of debris include non-operational satellites, rocket bodies, and fragments generated from explosions, collisions, or faulty payload assembly.

Loading next visibility...
Identifier
54389, 2022-151DM
Orbit
SSO
Country
Flag of CNCN / PRC
Related business
Manufacturer
SAST
Mission
Spacecraft
Bus & Motor
Unknown
Mass
Unknown
Launch date (UTC)
2022-11-11 (4 years ago)
Launch vehicle
Unknown
Launch site
Taiyaun Space Center, China (TSC)
Object type
Payload
Rocket body
Debris
Shape & HBR
Unknown shape, 0.2 m
Radar Cross Section
Medium (>0.1 m² and <1 m²)

Expand to show TLE details & history
Last TLE update: 14 hours ago

TLE from 14 hours ago
0 CZ-6A DEB
1 54389U 22151DM  26254.39275519  .00000377  00000-0  29547-3 0  9997
2 54389  98.9290 221.0792 0127435 207.9932 151.4336 13.94248633194285
Epoch: 2026-09-11T09:25Z
TLE epoch observation values (Epoch: 2026-09-11T09:25:34.048Z)
Latitude
0.00001°
Longitude
89.27057°
Altitude
998.546 km
Speed
7.311 km/s
True Right ascension
14h 44m 19s
True Declination
0° 00' 00"
Sunlit
Object was in daylight at epoch
Visualization orbit readout
Latitude
Unknown
Longitude
Unknown
Altitude
Unknown
Speed
Unknown
Apparent Right ascension
Unknown
Apparent Declination
Unknown
Sunlit
N/A
Visualization observer readout
Local Sidereal Time
16:01:45
Azimuth
Unknown
Elevation
Unknown
Doppler factor
Unknown
Orbital elements
Apogee altitude
1,003.871 km
Perigee altitude
818.094 km
Semi-major axis
7,289.12 km
Eccentricity
0.01274
Inclination
98.929°
RAAN
221.0792°
Arg. of periapsis
207.9932°
True anomaly
152.12222°
Mean anomaly
151.4336°
Eccentric anomaly
151.77887°
Mean motion
3.48763 °/min
Orbital period
103.22 mins
BSTAR
0.00029547
Loading maneuver chart data...
Computing Atmospheric mass density...
Loading historical data...
Loading historical data...
Loading historical data...
Loading historical data...
Loading historical data...
Loading historical data...
Loading historical data...

Documentation

Showing up to 5 results
|